STARLINK-32782, 62821

Orbit data source: Space-Track

STARLINK-32782, 62821 is a payload satellite owned by SpaceX/Seattle (US) in LEO that was launched on Fri, 24 Jan 2025 UTC via an FALCON 9 launch vehicle from the Air Force Western Test Range (AFWTR). Payload-class satellites include a variety of spacecraft equipped with specific instruments for various scientific and technological missions. These include communications satellites like Starlink; space stations such as the ISS; scientific satellites like the Hubble; Earth observation satellites from companies like Planet Labs, Umbra, and HawkEye 360; GPS; miniature CubeSats for education and research; and military/defense satellites.

Loading next visibility...
Identifier
62821, 2025-018R
Orbit
LEO
Country
Flag of USUS
Related business
Manufacturer
SpaceX/Seattle
Mission
Operational Commercial Communications
Bus & Motor
STARLINK V2M, Unknown motor
Mass
730 kg wet, ~700 kg dry
Launch date (UTC)
2025-01-24 (11 months ago)
Launch vehicle
FALCON 9
Launch site
Air Force Western Test Range (AFWTR)
Object type
Payload
Rocket body
Debris
Shape & HBR
Box + 2 Pan, 17.7 m
Radar Cross Section
33.884 m², Large (>1 m²)

Expand to show TLE details & history
Last TLE update: 22 hours ago

TLE from 22 hours ago
0 STARLINK-32782
1 62821U 25018R   25352.32977232  .00030648  00000-0  10424-2 0  9991
2 62821  53.1616 327.3754 0001347  86.7609 273.3546 15.30206354 50728
Epoch: 2025-12-18T07:54Z
TLE epoch observation values (Epoch: 2025-12-18T07:54:52.328Z)
Latitude
-0.00001°
Longitude
121.47052°
Altitude
476.042 km
Speed
7.629 km/s
True Right ascension
21h 49m 30s
True Declination
0° 00' 00"
Sunlit
Object was in daylight at epoch
Visualization orbit readout
Latitude
Unknown
Longitude
Unknown
Altitude
Unknown
Speed
Unknown
Apparent Right ascension
Unknown
Apparent Declination
Unknown
Sunlit
N/A
Visualization observer readout
Local Sidereal Time
04:22:34
Azimuth
Unknown
Elevation
Unknown
Doppler factor
Unknown
Orbital elements
Apogee altitude
476.375 km
Perigee altitude
474.529 km
Semi-major axis
6,853.589 km
Eccentricity
0.00013
Inclination
53.1616°
RAAN
327.3754°
Arg. of periapsis
86.7609°
True anomaly
273.33919°
Mean anomaly
273.3546°
Eccentric anomaly
273.3469°
Mean motion
3.8253 °/min
Orbital period
94.11 mins
BSTAR
0.0010424
Loading maneuver chart data...
Computing Atmospheric mass density...
Loading historical data...
Loading historical data...
Loading historical data...
Loading historical data...
Loading historical data...
Loading historical data...
Loading historical data...

Documentation

Showing up to 5 results
|